{"data":{"norad_id":62819,"epoch":"2026-09-21T20:03:04.796352Z","epoch_age_seconds":52801,"freshness":"FRESH","line1":"1 62819U 25018P   26264.83547218  .00016870  00000+0  50928-3 0  9998","line2":"2 62819  53.1585 115.3691 0001137  95.4055 264.7078 15.34400764 93258","mean_motion":15.34400764,"eccentricity":0.0001137,"inclination_deg":53.1585,"raan_deg":115.3691,"arg_perigee_deg":95.4055,"mean_anomaly_deg":264.7078,"bstar":0.00050928,"rev_number":9325,"period_min":93.847711353199,"perigee_km":461.92316616192,"apogee_km":463.47877271617,"semimajor_km":6840.837969439,"source":"CELESTRAK","updated_at":"2026-09-22T09:00:49.669217Z"}}